This demonstration page uses our WeatherBlox Daily Observations layout. Learn more.

Left ArrowRight Arrow

41.86663, -103.66717

Hourly Observations for April 29, 2018

Temp ( °F °C ) Dew Point ( °F °C ) Humidity (%) Winds ( mph kmh ) Pressure ( in mb ) Visibility ( mi km ) Precip ( " mm )
12:53 am 00:53 Clear 53 11.7 39 3.9 59 59 SE 20 31 29.77 1008 10 16 N/A
1:53 am 01:53 Clear 50 10 39 3.9 66 66 E 15 24 29.74 1007 10 16 N/A
2:53 am 02:53 Clear 48 8.9 40 4.4 74 74 E 14 22 29.71 1006 10 16 N/A
3:53 am 03:53 Clear 47 8.3 40 4.4 77 77 E 9 15 29.70 1006 10 16 N/A
4:53 am 04:53 Clear 45 7.2 40 4.4 83 83 E 9 15 29.70 1006 10 16 N/A
5:53 am 05:53 Sunny 43 6.1 40 4.4 89 89 ESE 14 22 29.69 1006 10 16 N/A
6:53 am 06:53 Sunny 44 6.7 40 4.4 85 85 ESE 14 22 29.70 1006 10 16 N/A
7:53 am 07:53 Sunny 49 9.4 43 6.1 80 80 ESE 12 19 29.71 1006 10 16 N/A
8:53 am 08:53 Sunny 53 11.7 44 6.7 72 72 ESE 12 19 29.68 1005 10 16 N/A
9:53 am 09:53 Mostly Cloudy 58 14.4 46 7.8 65 65 SE 16 26 29.66 1005 10 16 N/A
10:53 am 10:53 Sunny 60 15.6 46 7.8 60 60 VRB 3 6 29.67 1005 10 16 N/A
11:53 am 11:53 Partly Cloudy 67 19.4 48 8.9 51 51 ESE 7 11 29.62 1003 10 16 N/A
12:53 pm 12:53 Sunny 72 22.2 49 9.4 44 44 SE 13 20 29.58 1002 10 16 N/A
1:53 pm 13:53 Sunny 76 24.4 48 8.9 37 37 SE 12 19 29.56 1001 10 16 N/A
2:53 pm 14:53 Sunny 76 24.4 45 7.2 33 33 ESE 14 22 29.54 1000 10 16 N/A
3:53 pm 15:53 Mostly Sunny 79 26.1 41 5 26 26 ESE 13 20 29.51 999 10 16 N/A
4:53 pm 16:53 Sunny 80 26.7 41 5 25 25 E 15 24 29.49 999 10 16 N/A
5:53 pm 17:53 Sunny 76 24.4 42 5.6 30 30 E 12 19 29.49 999 10 16 N/A
6:23 pm 18:23 Partly Cloudy with Nearby Thunderstorms 73 22.8 44 6.7 35 35 NE 7 11 29.35 994 10 16 N/A
6:38 pm 18:38 Sunny 73 23 45 7 36 36 N 9 15 29.35 994 10 16 N/A
6:53 pm 18:53 Sunny 71 21.7 44 6.7 38 38 N 10 17 29.49 999 10 16 N/A
7:53 pm 19:53 Clear 67 19.4 37 2.8 33 33 N 14 22 29.50 999 10 16 N/A
8:53 pm 20:53 Clear 64 17.8 39 3.9 40 40 N 8 13 29.52 1000 10 16 N/A
9:53 pm 21:53 Mostly Cloudy 71 21.7 35 1.7 27 27 N 13 20 29.53 1000 10 16 N/A
10:53 pm 22:53 Clear 70 21.1 34 1.1 27 27 N N/A 29.50 999 10 16 N/A
11:53 pm 23:53 Clear 65 18.3 35 1.7 33 33 N N/A 29.49 999 10 16 N/A

Powered by AerisWeather